Date,TemperatureHighF,TemperatureAvgF,TemperatureLowF,DewpointHighF,DewpointAvgF,DewpointLowF,HumidityHigh,HumidityAvg,HumidityLow,PressureMaxIn,PressureMinIn,WindSpeedMaxMPH,WindSpeedAvgMPH,GustSpeedMaxMPH,PrecipitationSumIn
2013-2-1,20,13,5,13,6,-1,77,72,64,30.34,30.06,17,7,23,0.00
2013-2-2,30,24,16,24,18,10,83,80,74,30.15,29.88,12,4,20,0.00
2013-2-3,29,20,10,21,14,5,82,77,71,29.98,29.86,12,3,18,0.00
2013-2-4,39,30,24,28,22,19,83,74,63,29.97,29.70,9,2,13,0.04
2013-2-5,38,30,22,30,25,18,85,79,67,29.95,29.72,11,3,16,0.00
2013-2-6,40,34,30,28,26,23,81,72,61,30.18,29.95,10,2,15,0.00
2013-2-7,50,39,32,40,33,27,84,78,67,30.10,29.72,14,2,17,0.12
2013-2-8,38,34,31,34,29,26,85,82,75,30.28,29.76,14,5,18,0.00
2013-2-9,41,34,28,30,26,22,81,73,64,30.32,30.10,11,2,15,0.00
2013-2-14,38,36,32,32,30,26,80,78,76,29.89,29.85,10,3,14,0.00
2013-2-15,35,32,28,28,24,16,82,72,54,30.08,29.88,11,2,14,0.00
2013-2-16,28,23,17,18,13,9,75,64,51,30.07,30.01,12,4,17,0.00
2013-2-17,33,22,11,16,11,5,77,62,46,30.14,30.00,9,1,24,0.00
2013-2-18,56,41,26,43,31,15,83,69,59,30.00,29.39,22,6,33,0.16
2013-2-19,46,24,18,41,18,11,84,76,70,30.08,29.40,25,12,49,0.06
2013-2-20,28,20,11,17,11,4,75,70,62,30.27,30.08,15,4,19,0.00
2013-2-21,31,27,23,23,20,16,84,74,67,30.27,29.90,12,2,22,0.00
2013-2-22,38,32,26,33,28,22,85,84,80,29.93,29.75,12,4,38,0.06
2013-2-23,35,30,28,25,24,22,82,76,66,29.90,29.85,12,4,18,0.02
2013-2-24,38,29,19,26,22,-1,84,75,61,30.06,29.89,8,1,22,0.04
2013-2-25,44,34,24,32,26,21,85,75,60,30.08,29.84,10,2,15,0.00
2013-2-26,36,34,33,31,29,26,84,80,72,29.84,29.33,14,3,25,0.85
2013-2-27,37,34,33,33,29,27,85,82,76,29.57,29.38,12,4,20,0.08
2013-2-28,41,36,33,36,31,28,85,83,80,29.92,29.57,15,5,19,0.04